Content
SEND FEEDBACK

Daily
Averages
Monthly
Summary
United States of America

PUT IN BAY, OHIO


Home > North America > United States > Ohio
Elevation: 171 meters     Latitude: 41 39N     Longitude: 082 48W

WEATHER
 
SELECT A DAY
Number of Records: 125,405;   Date Range: 12/10/00 - 12/27/14
 
SHARE

PRINT THIS DATA

[ ← Previous Day ]
WEATHER ALMANAC - 28 JUNE, 2013
[ Next Day → ]
[ °F ]   °C
Weather ElementAverageHighLow
Temperature19.5 °C24.2 °C (1:00 pm)16.7 °C (2:00 pm)
Dewpoint17.7 °C19.8 °C (5:00 pm)15.6 °C (2:00 pm)
Humidity89.4 %98 % (8:00 am)71 % (6:00 pm)
Barometer1000.7 hPa1002.7 hPa (3:00 am)999 hPa (5:00 pm)
Wind Speed6.3 km/h14.8 km/h (1:00 pm)
Weather ElementAverage
Wind DirectionWSW (231.1 °)

Weather ElementTotal
Precipitation26.16 mm
Cooling Degree Days2.1 (Base 18.3)
Growing Degree Days10.4 (Base 10)
Averaged from 27 records on 28 June, 2013
WEATHER CONDITIONS BREAKOUT
WIND DIRECTION BREAKOUT
WEATHER BY HOUR - 28 JUNE, 2013
[ °F ]   °C
Local TimeTemperatureDewpointHumidityBarometerVisibilityWind DirectionWind SpeedGust SpeedPrecipitationEventsConditions
1:00 AM18.9 °C18 °C94 %1002.4 hPaNE (50°)5.6 km/h
2:00 AM19.4 °C18.3 °C91 %1002.4 hPaENE (60°)7.4 km/h
2:00 AM19.2 °C18.3 °C95 %1002.4 hPaENE (60°)7.4 km/h
3:00 AM19.4 °C18.4 °C94 %1002.7 hPaCalm
4:00 AM18.9 °C18 °C94 %1002 hPaWest (260°)5.6 km/h
5:00 AM18.5 °C17.7 °C95 %1001.7 hPaNW (310°)1.9 km/h
6:00 AM18.3 °C17.6 °C96 %1001.4 hPaNNW (340°)1.9 km/h
7:00 AM18.5 °C18 °C97 %1001 hPaWest (270°)1.9 km/h
8:00 AM18.9 °C18.3 °C95 %1001.4 hPaWNW (300°)7.4 km/h
8:00 AM18.7 °C18.3 °C98 %1001.4 hPaWNW (300°)7.4 km/h
9:00 AM20.2 °C18.7 °C91 %1001 hPaWNW (300°)5.6 km/h
10:00 AM21.7 °C18.3 °C81 %1000.7 hPaWNW (300°)9.3 km/h
11:00 AM21.9 °C18.8 °C82 %1000.3 hPaWest (270°)9.3 km/h
12:00 PM23.5 °C19.5 °C78 %1000 hPaWest (280°)9.3 km/h
1:00 PM24.2 °C19.2 °C74 %999.7 hPaWSW (250°)14.8 km/h
2:00 PM16.7 °C15.6 °C91 %1000.7 hPaWNW (300°)9.3 km/h
2:00 PM16.8 °C15.6 °C93 %1000.7 hPaWNW (300°)9.3 km/h12.95 mm
3:00 PM17.4 °C16.3 °C93 %1000.3 hPaSouth (180°)9.3 km/h4.57 mm
4:00 PM19.7 °C18.1 °C90 %999.3 hPaWest (260°)5.6 km/h
5:00 PM22.8 °C19.8 °C83 %999 hPaNorth (360°)5.6 km/h
6:00 PM21.4 °C15.9 °C71 %999.7 hPaNNE (30°)5.6 km/h
7:00 PM20.3 °C17.5 °C84 %1000.3 hPaWNW (290°)7.4 km/h0.51 mm
8:00 PM18.3 °C16.7 °C87 %1000.3 hPaWSW (250°)5.6 km/h
8:00 PM18.6 °C16.7 °C89 %1000.3 hPaWSW (250°)5.6 km/h1.52 mm
9:00 PM19.3 °C17.6 °C90 %1000.3 hPaWest (280°)7.4 km/h
10:00 PM16.9 °C15.9 °C94 %1000.3 hPaNE (40°)1.9 km/h6.35 mm
11:00 PM17.7 °C16.8 °C94 %1000 hPaNorth (350°)1.9 km/h0.25 mm
Hourly data recorded from CXHA, located 0 kilometers away from Put In Bay, Ohio







STORIES FROM OUR PARTNERS